Terminal Aerodrome Forecast
Issued by NWS

Home | Current Version | Previous Version | Text Only | Print | Product List | Glossary On
Versions: 1 2 3 4 5 6 7 8 9 10 11 12 13 14 15 16 17 18 19 20
000
FTUS43 KOAX 190500
TAFSNY
TAF
KSNY 190538Z 1906/2006 19014KT P6SM SCT100
     FM191000 33011KT P6SM SCT070 OVC200
     FM191600 03014KT P6SM BKN090
     FM192100 11010KT P6SM BKN080=

USA.gov is the U.S. government's official web portal to all federal, state and local government web resources and services.